| time (UTC) | temp F | wind direction | speed knots | gust knots | rain 1hr in | rain 24hr in | rain mn in | humidity % | barometer mb |
| 20260509194559 | 46 | 270 | 0.0 | 0.0 | 0.00 | 0.00 | 0.00 | 73 | 1019.3 |
| 20260509193058 | 47 | 270 | 0.0 | 0.0 | 0.00 | 0.00 | 0.00 | 71 | 1019.3 |
| 20260509191557 | 48 | 270 | 0.0 | 0.0 | 0.00 | 0.00 | 0.00 | 70 | 1019.4 |
| 20260509190057 | 49 | 270 | 0.0 | 0.0 | 0.00 | 0.00 | 0.00 | 68 | 1019.4 |
| 20260509184556 | 51 | 326 | 0.0 | 1.7 | 0.00 | 0.00 | 0.00 | 64 | 1019.5 |
| 20260509183055 | 52 | 326 | 0.0 | 0.9 | 0.00 | 0.00 | 0.00 | 61 | 1019.7 |
| 20260509181555 | 52 | 265 | 0.0 | 2.6 | 0.00 | 0.00 | 0.00 | 60 | 1019.6 |
| 20260509180055 | 53 | 342 | 0.0 | 2.6 | 0.00 | 0.00 | 0.00 | 55 | 1019.6 |
| 20260509174553 | 54 | 344 | 0.0 | 3.5 | 0.00 | 0.00 | 0.00 | 48 | 1019.7 |
| 20260509173116 | 55 | 251 | 0.9 | 2.6 | 0.00 | 0.00 | 0.00 | 47 | 1019.8 |
| 20260509171550 | 56 | 278 | 0.0 | 4.3 | 0.00 | 0.00 | 0.00 | 49 | 1019.9 |
| 20260509170056 | 56 | 347 | 0.9 | 3.5 | 0.00 | 0.00 | 0.00 | 48 | 1019.9 |
| 20260509164556 | 57 | 250 | 0.9 | 5.2 | 0.00 | 0.00 | 0.00 | 50 | 1020.1 |
| 20260509163048 | 57 | 334 | 0.9 | 4.3 | 0.00 | 0.00 | 0.00 | 53 | 1020.3 |
| 20260509161545 | 57 | 247 | 1.7 | 7.8 | 0.00 | 0.00 | 0.00 | 49 | 1020.5 |
| 20260509160047 | 58 | 294 | 0.9 | 5.2 | 0.00 | 0.00 | 0.00 | 45 | 1020.6 |
| 20260509154543 | 59 | 284 | 0.9 | 4.3 | 0.00 | 0.00 | 0.00 | 46 | 1020.7 |
| 20260509153042 | 59 | 327 | 2.6 | 7.0 | 0.00 | 0.00 | 0.00 | 42 | 1020.9 |
| 20260509151553 | 60 | 289 | 0.9 | 5.2 | 0.00 | 0.00 | 0.00 | 45 | 1021.0 |
| 20260509150045 | 59 | 283 | 0.9 | 6.1 | 0.00 | 0.00 | 0.00 | 44 | 1021.1 |
| 20260509144539 | 59 | 256 | 3.5 | 7.8 | 0.00 | 0.00 | 0.00 | 44 | 1021.3 |
| 20260509143044 | 59 | 274 | 1.7 | 7.0 | 0.00 | 0.00 | 0.00 | 43 | 1021.3 |
| 20260509141536 | 61 | 263 | 3.5 | 8.7 | 0.00 | 0.00 | 0.00 | 46 | 1021.5 |
| 20260509140035 | 60 | 206 | 7.0 | 12.2 | 0.00 | 0.00 | 0.00 | 43 | 1021.7 |
| 20260509134536 | 60 | 215 | 3.5 | 9.6 | 0.00 | 0.00 | 0.00 | 41 | 1021.8 |
| 20260509133033 | 60 | 261 | 3.5 | 13.0 | 0.00 | 0.00 | 0.00 | 42 | 1022.5 |
| 20260509131541 | 60 | 236 | 7.0 | 13.0 | 0.00 | 0.00 | 0.00 | 38 | 1022.1 |
| 20260509130053 | 60 | 205 | 6.1 | 12.2 | 0.00 | 0.00 | 0.00 | 39 | 1022.3 |
| 20260509124533 | 60 | 250 | 6.1 | 12.2 | 0.00 | 0.00 | 0.00 | 40 | 1022.4 |
| 20260509123044 | 60 | 257 | 6.1 | 10.4 | 0.00 | 0.00 | 0.00 | 39 | 1022.6 |
| 20260509121527 | 60 | 257 | 7.0 | 13.0 | 0.00 | 0.00 | 0.00 | 39 | 1022.8 |
| 20260509120031 | 60 | 246 | 2.6 | 7.8 | 0.00 | 0.00 | 0.00 | 37 | 1022.7 |
| 20260509114526 | 61 | 287 | 1.7 | 7.8 | 0.00 | 0.00 | 0.00 | 38 | 1022.8 |
| 20260509113023 | 61 | 343 | 1.7 | 8.7 | 0.00 | 0.00 | 0.00 | 41 | 1022.9 |
| 20260509111522 | 61 | 279 | 2.6 | 9.6 | 0.00 | 0.00 | 0.00 | 38 | 1023.1 |
| 20260509110026 | 61 | 284 | 0.9 | 7.8 | 0.00 | 0.00 | 0.00 | 40 | 1023.1 |
| 20260509104519 | 61 | 269 | 1.7 | 6.1 | 0.00 | 0.00 | 0.00 | 41 | 1023.2 |
| 20260509103016 | 59 | 229 | 4.3 | 9.6 | 0.00 | 0.00 | 0.00 | 40 | 1023.4 |
| 20260509101519 | 59 | 71 | 3.5 | 8.7 | 0.00 | 0.00 | 0.00 | 44 | 1023.7 |
| 20260509100011 | 60 | 295 | 1.7 | 7.0 | 0.00 | 0.00 | 0.00 | 48 | 1023.8 |
| 20260509094513 | 60 | 215 | 0.9 | 6.1 | 0.00 | 0.00 | 0.00 | 47 | 1023.9 |
| 20260509093008 | 59 | 325 | 2.6 | 7.0 | 0.00 | 0.00 | 0.00 | 49 | 1023.9 |
| 20260509091506 | 58 | 261 | 1.7 | 7.8 | 0.00 | 0.00 | 0.00 | 51 | 1024.0 |
| 20260509090002 | 57 | 350 | 1.7 | 7.0 | 0.00 | 0.00 | 0.00 | 54 | 1024.0 |
| 20260509084502 | 57 | 298 | 0.9 | 3.5 | 0.00 | 0.00 | 0.00 | 56 | 1024.0 |
| 20260509083057 | 56 | 344 | 0.9 | 4.3 | 0.00 | 0.00 | 0.00 | 58 | 1024.0 |
| 20260509081559 | 56 | 36 | 0.0 | 4.3 | 0.00 | 0.00 | 0.00 | 63 | 1024.1 |
| 20260509080059 | 55 | 346 | 1.7 | 5.2 | 0.00 | 0.00 | 0.00 | 64 | 1024.1 |
| 20260509074552 | 54 | 4 | 0.9 | 7.0 | 0.00 | 0.00 | 0.00 | 67 | 1024.0 |
| 20260509073049 | 55 | 329 | 2.6 | 7.0 | 0.00 | 0.00 | 0.00 | 65 | 1024.2 |
| 20260509071548 | 54 | 274 | 0.9 | 7.0 | 0.00 | 0.00 | 0.00 | 66 | 1024.0 |
| 20260509070046 | 53 | 297 | 0.0 | 5.2 | 0.00 | 0.00 | 0.00 | 69 | 1024.0 |
| 20260509064551 | 52 | 192 | 0.0 | 5.2 | 0.00 | 0.00 | 0.00 | 76 | 1024.0 |
| 20260509063036 | 51 | 170 | 0.0 | 3.5 | 0.00 | 0.00 | 0.00 | 77 | 1024.0 |
| 20260509061534 | 50 | 210 | 1.7 | 4.3 | 0.00 | 0.00 | 0.00 | 78 | 1023.9 |
| 20260509060029 | 50 | 167 | 0.0 | 2.6 | 0.00 | 0.00 | 0.00 | 79 | 1023.9 |
| 20260509054524 | 48 | 192 | 2.6 | 5.2 | 0.00 | 0.00 | 0.00 | 83 | 1023.9 |
| 20260509053023 | 47 | 175 | 0.0 | 1.7 | 0.00 | 0.00 | 0.00 | 83 | 1023.9 |
| 20260509051522 | 45 | 175 | 0.0 | 1.7 | 0.00 | 0.00 | 0.00 | 85 | 1023.8 |
| 20260509050023 | 43 | 194 | 0.0 | 0.0 | 0.00 | 0.00 | 0.00 | 89 | 1023.8 |
| 20260509044513 | 41 | 198 | 0.0 | 0.0 | 0.00 | 0.00 | 0.00 | 91 | 1023.8 |
| 20260509043012 | 40 | 222 | 0.0 | 0.0 | 0.00 | 0.00 | 0.00 | 91 | 1023.7 |
| 20260509041518 | 38 | 222 | 0.0 | 0.0 | 0.00 | 0.00 | 0.00 | 91 | 1023.8 |
| 20260509040010 | 38 | 222 | 0.0 | 0.0 | 0.00 | 0.00 | 0.00 | 90 | 1023.8 |
| 20260509034508 | 38 | 222 | 0.0 | 0.0 | 0.00 | 0.00 | 0.00 | 90 | 1023.8 |
| 20260509033007 | 37 | 222 | 0.0 | 0.0 | 0.00 | 0.00 | 0.00 | 90 | 1023.9 |
| 20260509031520 | 37 | 222 | 0.0 | 0.0 | 0.00 | 0.00 | 0.00 | 90 | 1024.0 |
| 20260509030006 | 37 | 222 | 0.0 | 0.0 | 0.00 | 0.00 | 0.00 | 90 | 1024.0 |
| 20260509024502 | 38 | 222 | 0.0 | 0.0 | 0.00 | 0.00 | 0.00 | 90 | 1024.1 |
| 20260509023000 | 38 | 222 | 0.0 | 0.0 | 0.00 | 0.00 | 0.00 | 89 | 1024.2 |
| 20260509021600 | 38 | 222 | 0.0 | 0.0 | 0.00 | 0.00 | 0.00 | 89 | 1024.2 |
| 20260509020100 | 38 | 222 | 0.0 | 0.0 | 0.00 | 0.00 | 0.00 | 89 | 1024.4 |
| 20260509014558 | 39 | 222 | 0.0 | 0.0 | 0.00 | 0.00 | 0.00 | 89 | 1024.3 |
| 20260509013056 | 39 | 222 | 0.0 | 0.0 | 0.00 | 0.00 | 0.00 | 89 | 1024.4 |
| 20260509011558 | 39 | 222 | 0.0 | 0.0 | 0.00 | 0.00 | 0.00 | 88 | 1024.4 |
| 20260509010059 | 41 | 222 | 0.0 | 2.6 | 0.00 | 0.00 | 0.00 | 87 | 1024.5 |
| 20260509004601 | 41 | 236 | 1.7 | 3.5 | 0.00 | 0.00 | 0.00 | 89 | 1024.4 |
| 20260509003053 | 40 | 223 | 2.6 | 3.5 | 0.00 | 0.00 | 0.00 | 89 | 1024.4 |
| 20260509001549 | 40 | 221 | 0.0 | 0.0 | 0.00 | 0.00 | 0.00 | 90 | 1024.4 |
| 20260509000049 | 40 | 221 | 0.0 | 0.0 | 0.00 | 0.00 | 0.00 | 90 | 1024.5 |
| 20260508234550 | 40 | 232 | 0.0 | 0.0 | 0.00 | 0.00 | 0.00 | 89 | 1024.4 |
| 20260508233050 | 40 | 321 | 0.0 | 0.0 | 0.00 | 0.00 | 0.00 | 87 | 1024.5 |
| 20260508231542 | 41 | 321 | 0.0 | 0.0 | 0.00 | 0.00 | 0.00 | 87 | 1024.3 |
| 20260508230100 | 41 | 321 | 0.0 | 0.0 | 0.00 | 0.00 | 0.00 | 86 | 1024.4 |
| 20260508224546 | 41 | 321 | 0.0 | 0.0 | 0.00 | 0.00 | 0.00 | 86 | 1024.3 |
| 20260508223037 | 41 | 321 | 0.9 | 2.6 | 0.00 | 0.00 | 0.00 | 86 | 1024.3 |
| 20260508221535 | 42 | 321 | 0.0 | 0.0 | 0.00 | 0.00 | 0.00 | 85 | 1024.4 |
| 20260508220105 | 43 | 321 | 0.0 | 0.0 | 0.00 | 0.00 | 0.00 | 84 | 1024.4 |
| 20260508214533 | 43 | 321 | 0.0 | 0.0 | 0.00 | 0.00 | 0.00 | 84 | 1024.4 |
| 20260508213035 | 44 | 321 | 0.0 | 0.0 | 0.00 | 0.00 | 0.00 | 84 | 1024.4 |
| 20260508211534 | 44 | 321 | 0.0 | 0.0 | 0.00 | 0.00 | 0.00 | 83 | 1024.4 |
| 20260508210034 | 44 | 321 | 0.0 | 0.0 | 0.00 | 0.00 | 0.00 | 81 | 1024.3 |
| 20260508204531 | 45 | 321 | 0.0 | 0.0 | 0.00 | 0.00 | 0.00 | 79 | 1024.1 |
| 20260508203026 | 45 | 321 | 0.0 | 0.0 | 0.00 | 0.00 | 0.00 | 77 | 1023.9 |
| 20260508201532 | 46 | 321 | 0.0 | 0.0 | 0.00 | 0.00 | 0.00 | 77 | 1023.7 |
| 20260508200025 | 47 | 321 | 0.0 | 0.0 | 0.00 | 0.00 | 0.00 | 75 | 1023.6 |